Regional Weather Roundup
Issued by NWS

Home | Current Version | Previous Version | Text Only | Print | Product List | Glossary On
Versions: 1 2 3 4 5 6 7 8 9 10 11 12 13 14 15 16 17 18 19 20 21 22 23 24 25 26 27 28 29 30 31 32 33 34 35 36 37 38 39 40 41 42 43 44 45 46 47 48 49 50
924
ASUS44 KJAN 222010
RWRMS

MISSISSIPPI HOURLY WEATHER ROUNDUP
NATIONAL WEATHER SERVICE JACKSON MS
300 PM CDT MON SEP 22 2014

NOTE: "FAIR: INDICATES FEW OR NO CLOUDS BELOW 12,000 FEET WITH NO
SIGNIFICANT WEATHER AND/OR OBSTRUCTIONS TO VISIBILITY.

MSZ001>002-007>008-010>013-018>021-025>028-034>036-222100-
NORTHWEST MISSISSIPPI

CITY           SKY/WX    TMP DP  RH WIND       PRES   REMARKS
CLARKSDALE     FAIR      77  54  44 N15G23    30.16F
CLEVELAND      FAIR      80  53  39 NE16G25   30.13F
GREENWOOD      SUNNY     81  53  37 N12       30.12F
GREENVILLE     SUNNY     84  46  26 NE17      30.12F
GRENADA        FAIR      77  52  41 N9        30.14S
OLIVE BRANCH   SUNNY     73  52  46 N13       30.18F
OXFORD         FAIR      75  52  43 N6        30.17F
TUNICA         CLEAR     77  52  41 N13G20    30.17F
$$

MSZ003>006-009-014>017-022>024-029>033-037>039-222100-
NORTHEAST MISSISSIPPI

CITY           SKY/WX    TMP DP  RH WIND       PRES   REMARKS
COLUMBUS AFB   SUNNY     79  51  37 NW13      30.10F
CORINTH        FAIR      77  50  38 N13       30.15S
GOLDN TRIANGLE SUNNY     81  52  36 N13G20    30.11F
STARKVILLE     FAIR      79  48  34 N8G18     30.10F
TUPELO         SUNNY     77  51  40 E13       30.13F
$$

MSZ040-058-222100-
CENTRAL MISSISSIPPI

CITY           SKY/WX    TMP DP  RH WIND       PRES   REMARKS
JACKSON INTL   SUNNY     84  52  33 N14       30.08F
JACKSON HAWKNS SUNNY     83  49  30 N10G18    30.09F
MERIDIAN KEY   SUNNY     84  46  26 N16G22    30.06F
MERIDIAN NAS   SUNNY     84  50  30 N15G21    30.07F
RAYMOND        FAIR      82  77  83 N6        30.08F HX  91
VICKSBURG      SUNNY     85  51  31 NE9       30.09F
$$

MSZ059>079-222100-
SOUTH MISSISSIPPI

CITY           SKY/WX    TMP DP  RH WIND       PRES   REMARKS
BROOKHAVEN     FAIR      82  54  36 N7G16     30.08F
COLUMBIA       FAIR      86  57  37 N14       30.01F
HATTIESBURG    SUNNY     87  60  40 N12       30.02F
MCCOMB         SUNNY     86  58  38 N15       30.03F
NATCHEZ        SUNNY     82  57  42 N13G18    30.08F
PINE BELT      SUNNY    N/A N/A N/A NE14G20   30.04F
$$

MSZ080>082-222100-
COASTAL MISSISSIPPI

CITY           SKY/WX    TMP DP  RH WIND       PRES   REMARKS
BAY ST LOUIS   MOSUNNY   82  72  69 N6        29.98F
BILOXI         MOSUNNY   80  74  81 W1        29.98F
PASCAGOULA     MOSUNNY   86  73  65 N9        29.97F HX  93
GULFPORT       PTSUNNY   80  73  79 SE6       29.98F
$$



USA.gov is the U.S. government's official web portal to all federal, state and local government web resources and services.